Regional Weather Roundup
Issued by NWS Sterling, VA

Home | Current Version | Previous Version | Text Only | Print | Product List | Glossary Off
Versions: 1 2 3 4 5 6 7 8 9 10 11 12 13 14 15 16 17 18 19 20 21 22 23 24 25 26 27 28 29 30 31 32 33 34 35 36 37 38 39 40 41 42 43 44 45 46 47 48 49 50

000
ASUS41 KLWX 181211
RWRLWX

REGIONAL WEATHER ROUNDUP
NATIONAL WEATHER SERVICE BALTIMORE MD/WASHINGTON DC
800 AM EDT FRI AUG 18 2017

Note: "FAIR" indicates few or no clouds below 12,000 feet
with no significant weather and/or obstructions to visibility.
 TC=TEMPERATURE CELSIUS

 * =Non NWS site. Station does not report precipitation (e.g. rain,
    snow, etc.), thunder, or fog.

DCZ001-MDZ009-015-VAZ040>042-051-053>054-181300-
WASHINGTON METRO

CITY           SKY/WX    TMP DP  RH WIND       PRES   REMARKS
WASHINGTON NAT CLOUDY    78  76  93 S9        29.88R THUNDER
DULLES         CLOUDY    77  76  96 SW8       29.88R
ANDREWS AFB    CLOUDY    76  74  91 SW10      29.88R
FT BELVOIR     CLOUDY    78  74  89 SW3       29.88R
QUANTICO       CLOUDY    78  76  93 SW6       29.89R
COLLEGE PARK*  CLOUDY    77  74  88 S5        29.87S
LEESBURG*      CLOUDY    79  79 100 CALM      29.89R
MANASSAS*      CLOUDY    77  75  93 SW6       29.89R
GAITHERSBURG*  CLOUDY    77  74  90 VRB5      29.90R

$$

MDZ006>007-011-014-181300-
BALTIMORE METRO

CITY           SKY/WX    TMP DP  RH WIND       PRES   REMARKS
BWI AIRPORT    CLOUDY    76  75  97 CALM      29.87R
MD SCIENCE CTR   N/A     79  75  87 MISG      29.87S
MARTIN STATE   CLOUDY    79  79 100 S6        29.88F
ANNAPOLIS      CLOUDY    78  78 100 S6        29.87S
FORT MEADE*    CLOUDY    73  72  94 CALM      29.90S

$$

MDZ012-015-019>023-181300-
MARYLAND EASTERN SHORE

CITY           SKY/WX    TMP DP  RH WIND       PRES   REMARKS
OCEAN CITY     CLOUDY    79  77  94 SW12      29.93S
SALISBURY      PTSUNNY   79  77  94 S9        29.90F
BAY BRIDGE AP* CLOUDY    79  75  89 S10       29.88R
CAMBRIDGE*     CLOUDY    81  77  89 S7        29.89S
EASTON*        PTSUNNY   81  75  83 S10       29.92S

$$

MDZ017>025-181300-
SOUTHERN MARYLAND

CITY           SKY/WX    TMP DP  RH WIND       PRES   REMARKS
PATUXENT RIVER PTSUNNY   78  76  93 S7        29.89R
ST INIGOES     CLOUDY    79  77  94 S9        29.89S
LEONARDTOWN*   CLOUDY    77  73  88 SW6       29.91S

$$

MDZ003>005-181300-
NORTH CENTRAL MARYLAND

CITY           SKY/WX    TMP DP  RH WIND       PRES   REMARKS
FREDERICK*     CLOUDY    81  81 100 CALM      29.90R HX  91
HAGERSTOWN APT MOSUNNY   78  74  87 S10       29.86F
WESTMINSTER*   CLOUDY    77  75  94 S5        29.89S

$$

MDZ501>502-181300-
WESTERN MARYLAND

CITY           SKY/WX    TMP DP  RH WIND       PRES   REMARKS
OAKLAND*       CLOUDY    68  68 100 SW7       29.95S
CUMBERLAND*    CLOUDY    72  72 100 CALM      29.91S

$$

VAZ025>031-181300-
SHENANDOAH VALLEY

CITY           SKY/WX    TMP DP  RH WIND       PRES   REMARKS
WINCHESTER*    SUNNY     73  70  88 SW6       29.88S
FRONT ROYAL*   SUNNY     73  73 100 S5        29.88S
LURAY*         SUNNY     73  72  94 CALM      29.91S
NEW MARKET*    SUNNY     74  71  90 SW3       29.91R
STAUNTON*      SUNNY     72  71  95 CALM      29.96R
WAYNESBORO*    SUNNY     74  73  98 S3        29.96S

$$

WVZ021-048>050-054>055-181300-
EASTERN WEST VIRGINIA PANHANDLE

CITY           SKY/WX    TMP DP  RH WIND       PRES   REMARKS
MARTINSBURG    SUNNY     76  72  87 S5        29.86S
PETERSBURG*    SUNNY     72  71  97 CALM      29.90S

$$

VAZ036>039-050-181300-
CENTRAL FOOTHILLS

CITY           SKY/WX    TMP DP  RH WIND       PRES   REMARKS
CHARLOTTESVILL FOG       76  75  97 SW6       29.90S VSB 1/2
CULPEPER*      CLOUDY    77  76  97 SW3       29.90R FOG
ORANGE*        CLOUDY    73  73 100 CALM      29.90S FOG
GORDONSVILLE*  CLOUDY    75  75 100 SW5       29.90S FOG
WARRENTON*     CLOUDY    78  73  87 SW6       29.89R

$$

VAZ055>057-181300-
NORTH AND CENTRAL PIEDMONT

CITY           SKY/WX    TMP DP  RH WIND       PRES   REMARKS
FREDERICKSBRG* CLOUDY    77  77 100 S5        29.88S
STAFFORD*      CLOUDY    76  76 100 SW3       29.93S

$$

NCZ024-NYZ072-PAZ021-071-VAZ022-071-181300-
OTHER REGIONAL OBSERVATIONS

CITY           SKY/WX    TMP DP  RH WIND       PRES   REMARKS
NEW YORK CITY  LGT RAIN  74  72  93 CALM      29.92S FOG
PHILADELPHIA   CLOUDY    77  74  90 S9        29.87F THUNDER
PITTSBURGH     CLOUDY    73  72  96 SW6       29.85S
ROANOKE        MOSUNNY   76  71  85 NW3       29.98R
RICHMOND       CLOUDY    76  75  97 SW8       29.92R
RALEIGH        CLOUDY    78  75  90 SW7       29.95R

$$

ANZ530>537-181300-
MARINE OBSERVATIONS

STATION/POSITION TIME  TEMP    WIND        PRES
                       AIR SEA DIR/SP/G
                 (UTC) (F)     (DEG/KT/KT) (MB)
THOMAS PT LIGHT  1200   78 80  190/ 15/ 18   N/A
BALT KEY BRIDGE  1142   77     180/  7/  9 1011.3R
COVE POINT       1142   77     210/ 12/ 16 1012.9R
LEWISETTA        1142   79 82  240/ 10/ 13 1012.4R
SOLOMONS ISLAND  1142   78 81  210/  8/ 11   N/A
PINEY POINT      1136          220/  7/  9   N/A

$$




USA.gov is the U.S. government's official web portal to all federal, state and local government web resources and services.